Home   Weather   El Aaiún   Past weeks

Past Weather in El Aaiún, Western Sahara — Yesterday and Last 2 Weeks

Now
63 °F

Clear.


Feels Like: 63 °F
Forecast: 68 / 75 °F
Wind: 8 mph from Southwest

Location: Laayoune/Hassan Isl

Current Time: Dec 3, 2016 at 2:29:48 am

Latest Report: Dec 3, 2016 at 2:00 am


Visibility: 10 mi

Pressure: 29.95 "Hg

Humidity: 88%

Dew Point: 59 °F

Location of El AaiúnLocation

Past Weather in El Aaiún — Graph

°F

El Aaiún Temperature Yesterday

Maximum temperature yesterday: 79 °F (at 1:00 pm)
Minimum temperature yesterday: 64 °F (at 12:00 am)
Average temperature yesterday: 71 °F

High & Low Weather Summary for the Past Weeks

 TemperatureHumidityPressure
High88 °F (Nov 18, 3:00 pm)100% (Nov 22, 8:00 am)30.12 "Hg (Nov 22, 8:00 am)
Low52 °F (Nov 25, 7:00 am)16% (Nov 18, 4:00 pm)29.89 "Hg (Nov 22, 5:00 am)
Average66 °F66%30.01 "Hg
* Reported Nov 18 1:00 am — Dec 3 1:00 am, El Aaiún, Weather by CustomWeather, © 2016

Note: Actual official high and low records may vary slightly from our data, if they occured in-between our weather recording intervals... More about our weather records

Advertising

El Aaiún Weather History for the Previous 24 Hours

Scroll right to see more
 ConditionsComfort  
Time TempWeatherWind HumidityBarometerVisibility
1:00 am
Sat, Dec 3
63 °FClear.5 mph88%29.95 "Hg10 mi
12:00 am63 °FClear.6 mph94%29.98 "Hg10 mi
11:00 pm
Fri, Dec 2
64 °FClear.8 mph88%29.98 "Hg10 mi
10:00 pm64 °FClear.9 mph83%29.98 "Hg10 mi
9:00 pm66 °FClear.5 mph68%29.98 "Hg10 mi
8:00 pm68 °FClear.7 mph64%29.95 "Hg10 mi
7:00 pm70 °FClear.5 mph60%29.98 "Hg10 mi
6:00 pm72 °FSunny.9 mph53%29.95 "Hg10 mi
5:00 pm75 °FSunny.9 mph47%29.95 "Hg10 mi
4:00 pm75 °FSunny.13 mph44%29.95 "Hg10 mi
3:00 pm79 °FSunny.8 mph32%29.95 "Hg10 mi
2:00 pm79 °FSunny.8 mph32%29.98 "Hg10 mi
1:00 pm79 °FSunny.7 mph32%30.01 "Hg10 mi
12:00 pm77 °FSunny.7 mph39%30.04 "Hg10 mi
11:00 am75 °FSunny.1 mph41%30.04 "Hg10 mi
10:00 am72 °FSunny.1 mph38%30.04 "Hg10 mi
9:00 am70 °FSunny.2 mph43%30.01 "Hg10 mi
8:00 am68 °FClear.3 mph46%30.01 "Hg10 mi
7:00 am68 °FClear.10 mph49%29.98 "Hg10 mi
6:00 am70 °FClear.5 mph40%30.01 "Hg10 mi
5:00 am70 °FClear.5 mph40%30.01 "Hg10 mi
3:00 am68 °FClear.5 mph49%30.01 "Hg10 mi
2:00 am68 °FClear.5 mph49%30.04 "Hg10 mi
Weather by CustomWeather, © 2016

See weather overviewHow to use our weather pages